Faro, Portugal

3:20 PM WET on November 19, 2017 (GMT +0000)
Faro

Weather History for LPFR - May, 2013

Change the Weather History Date:

Monday, May 6, 2013

  Actual Average Record
Temperature  
Mean Temperature 67 °F -  
Max Temperature 74 °F 72 °F 78 °F (2008)
Min Temperature 60 °F 58 °F 51 °F (2001)
Cooling Degree Days 2    
Growing Degree Days 17 (Base 50)    
Moisture  
Dew Point 47 °F    
Average Humidity 44    
Maximum Humidity 64    
Minimum Humidity 20    
Precipitation  
Precipitation 0.00 in 0.02 in - ()
Sea Level Pressure  
Sea Level Pressure 30.12 in    
Wind  
Wind Speed 7 mph ()    
Max Wind Speed 12 mph    
Max Gust Speed -    
Visibility 10.3 miles    
Events      
Averages and records for this station are not official NWS values.
T = Trace of Precipitation, MM = Missing Value Source: Averaged Metar Reports

Daily Weather History Graph

Daily Weather History Graph

Search for Another Location

Airport or City:

Trip Planner

Search our weather history database for the weather conditions in past years. The results will help you decide how hot, cold, wet, or windy it might be!

Date:

Astronomy

May. 06, 2013 Rise Set
Actual Time 6:32 AM WEST 8:25 PM WEST
Civil Twilight 6:03 AM WEST 8:53 PM WEST
Nautical Twilight 5:29 AM WEST 9:28 PM WEST
Astronomical Twilight 4:52 AM WEST 10:05 PM WEST
Moon 4:22 AM WEST (5/6) 5:15 PM WEST (5/6)
Length of Visible Light 14h 49m
Length of Day
13h 53m
Waning Crescent, 12% of the Moon is Illuminated
May 6
Waning Crescent
May 10
New
May 18
First Quarter
May 25
Full
May 31
Last Quarter

Hourly Weather History & Observations

Time (WEST) Temp. Dew Point Humidity Pressure Visibility Wind Dir Wind Speed Gust Speed Precip Events Conditions
12:00 AM 68.0 °F 41.0 °F 37% 30.12 in - North 11.5 mph - N/A   Clear
12:30 AM 68.0 °F 39.2 °F 35% 30.12 in - North 11.5 mph - N/A   Clear
1:00 AM 69 °F 37 °F 20% 30.16 in 12 mi North 6.7 mph - -   Partly Cloudy
1:00 AM 68.0 °F 37.4 °F 33% 30.12 in - North 9.2 mph - N/A   Clear
1:30 AM 68.0 °F 39.2 °F 35% 30.12 in - NNE 8.1 mph - N/A   Clear
2:00 AM 68.0 °F 39.2 °F 35% 30.12 in - NNE 9.2 mph - N/A   Clear
2:30 AM 68.0 °F 39.2 °F 35% 30.12 in - NNE 11.5 mph - N/A   Clear
3:00 AM 68.0 °F 39.2 °F 35% 30.09 in - North 8.1 mph - N/A   Clear
3:30 AM 66.2 °F 39.2 °F 37% 30.09 in - North 9.2 mph - N/A   Clear
4:00 AM 67 °F 38 °F 23% 30.12 in 12 mi North 6.7 mph - -   Partly Cloudy
4:00 AM 66.2 °F 39.2 °F 37% 30.09 in - NNE 4.6 mph - N/A   Clear
4:30 AM 66.2 °F 39.2 °F 37% 30.09 in - North 3.5 mph - N/A   Clear
5:00 AM 64.4 °F 41.0 °F 42% 30.09 in - Variable 2.3 mph - N/A   Clear
5:30 AM 64.4 °F 41.0 °F 42% 30.09 in - NNW 3.5 mph - N/A   Clear
6:00 AM 62.6 °F 41.0 °F 45% 30.09 in - Variable 2.3 mph - N/A   Clear
6:30 AM 62.6 °F 41.0 °F 45% 30.09 in - Calm Calm - N/A   Clear
7:00 AM 62 °F 42 °F 36% 30.14 in 12 mi East 4.5 mph - -   Partly Cloudy
7:00 AM 60.8 °F 48.2 °F 63% 30.09 in - East 3.5 mph - N/A   Clear
7:30 AM 64.4 °F 44.6 °F 49% 30.12 in - ENE 8.1 mph - N/A   Clear
8:00 AM 68.0 °F 42.8 °F 40% 30.12 in - East 5.8 mph - N/A   Clear
8:30 AM 69.8 °F 46.4 °F 43% 30.12 in - SE 3.5 mph - N/A   Clear
9:00 AM 71.6 °F 46.4 °F 41% 30.12 in - Variable 2.3 mph - N/A   Clear
9:30 AM 69.8 °F 51.8 °F 53% 30.12 in - South 4.6 mph - N/A   Clear
10:00 AM 70 °F 47 °F 32% 30.17 in 9 mi South 4.5 mph - -   Clear
10:00 AM 69.8 °F 50.0 °F 49% 30.12 in - South 5.8 mph - N/A   Clear
10:30 AM 69.8 °F 50.0 °F 49% 30.12 in - South 5.8 mph - N/A   Clear
11:00 AM 71.6 °F 50.0 °F 46% 30.15 in - South 5.8 mph - N/A   Clear
11:30 AM 71.6 °F 50.0 °F 46% 30.15 in - South 6.9 mph - N/A   Clear
12:00 PM 69.8 °F 57.2 °F 64% 30.15 in - SW 9.2 mph - N/A   Clear
12:30 PM 69.8 °F 55.4 °F 60% 30.15 in - WSW 9.2 mph - N/A   Clear
1:00 PM 71 °F 52 °F 40% 30.18 in 9 mi SW 6.7 mph - -   Clear
1:00 PM 71.6 °F 53.6 °F 53% 30.15 in - SW 8.1 mph - N/A   Clear
1:30 PM 71.6 °F 51.8 °F 50% 30.15 in - WSW 8.1 mph - N/A   Clear
2:00 PM 71.6 °F 51.8 °F 50% 30.12 in - SW 9.2 mph - N/A   Clear
2:30 PM 73.4 °F 50.0 °F 44% 30.12 in - SW 9.2 mph - N/A   Clear
3:00 PM 71.6 °F 50.0 °F 46% 30.12 in - SW 10.4 mph - N/A   Clear
3:30 PM 71.6 °F 51.8 °F 50% 30.12 in - SW 9.2 mph - N/A   Clear
4:00 PM 73 °F 50 °F 33% 30.14 in - SW 8.9 mph - -  
4:00 PM 71.6 °F 51.8 °F 50% 30.12 in - SW 9.2 mph - N/A   Clear
4:30 PM 71.6 °F 55.4 °F 57% 30.12 in - WSW 9.2 mph - N/A   Clear
5:00 PM 71.6 °F 55.4 °F 57% 30.09 in - WSW 6.9 mph - N/A   Clear
5:30 PM 69.8 °F 57.2 °F 64% 30.12 in - WSW 9.2 mph - N/A   Clear
6:00 PM 71.6 °F 53.6 °F 53% 30.09 in - WSW 6.9 mph - N/A   Clear
6:30 PM 69.8 °F 55.4 °F 60% 30.09 in - West 6.9 mph - N/A   Clear
7:00 PM 71 °F 55 °F 47% 30.14 in 9 mi WSW 6.7 mph - -   Clear
7:00 PM 71.6 °F 57.2 °F 60% 30.09 in - WSW 8.1 mph - N/A   Clear
7:30 PM 69.8 °F 57.2 °F 64% 30.09 in - West 6.9 mph - N/A   Clear
8:00 PM 69.8 °F 57.2 °F 64% 30.09 in - West 5.8 mph - N/A   Clear
8:30 PM 69.8 °F 55.4 °F 60% 30.09 in - West 10.4 mph - N/A   Clear
9:00 PM 71.6 °F 44.6 °F 38% 30.12 in - NW 9.2 mph - N/A   Clear
9:30 PM 71.6 °F 42.8 °F 35% 30.12 in - NW 9.2 mph - N/A   Clear
10:00 PM 72 °F 41 °F 22% 30.16 in 9 mi NNW 6.7 mph - -   Clear
10:00 PM 71.6 °F 42.8 °F 35% 30.12 in - North 6.9 mph - N/A   Clear
10:30 PM 71.6 °F 42.8 °F 35% 30.12 in - NNW 8.1 mph - N/A   Clear
11:00 PM 71.6 °F 41.0 °F 33% 30.12 in - NNE 4.6 mph - N/A   Clear
11:30 PM 71.6 °F 42.8 °F 35% 30.09 in - Variable 2.3 mph - N/A   Clear